STARLINK-31478

operational
NORAD ID: 59188 Int'l Des: 2024-045 Owner: SPXS Country: US Constellation: starlink
LEOCIRCULAR

About STARLINK-31478

Description loading...

Live Position

Loading 3D Globe...

Upcoming Passes

Altitude History

Altitude vs Time

uPlot chart will show altitude changes over time

Two-Line Element Set

1 59188U 24045L 25251.14168030 -.00010125 00000-0 -35928-3 0 9995
2 59188 42.9985 43.4192 0000077 62.9667 297.1192 15.27547801 85243
Epoch: Sep 8, 2025 • Age: 12 hours

Current Status

Altitude 495.4 km
Velocity 7.62 km/s
Sub-Earth Point -40.42°S, 112.68°E
Launch Date Mar 11, 2024
Age 1.4 years
Type internet

Technical Details

Classification Payload
Mass 730.00 kg
Dry Mass 700.00 kg
Total Mass 730.00 kg
Length 0.30 m
Diameter 4.10 m
Span 29.00 m
Shape Box + pan
Manufacturer SPXS
Bus Type Starlink V2M
Phase Status In Orbit
Owner/State SPXS/US

Large Constellations

Loading constellations...